RH
96 94 90 86 81 78 76 75 74 73 72 72 76 77 69 51 35 25 22 22 23 23 22 20 18 17 15 15 14 15 15 16 17 17 17 17 16 15 14 14 16 18 20 22 23 22 21 19 18 17 16 14 13 12 11 10 9 8 8 7 7 8 7 7 6 5 5 6 6 5 5 6 6 7 10 14 19 20 18 19 24 27 27 26 25
87 82 79 76 74 75 76 75 73 72 74 77 75 64 49 36 29 27 27 27 27 26 24 21 20 18 17 17 17 18 19 20 20 20 20 19 18 17 18 20 23 25 26 26 26 24 22 20 18 17 15 14 13 11 10 10 9 9 9 9 8 8 8 8 7 6 6 6 6 6 6 7 9 12 18 25 31 34 33 30 29 30 31 33 34
74 72 72 74 75 76 75 74 73 76 78 73 60 46 37 34 32 32 32 31 30 28 26 24 22 21 21 21 21 22 23 24 24 24 23 21 20 20 23 27 29 30 30 28 26 24 22 20 18 16 15 13 12 11 11 10 10 10 10 10 10 9 8 8 7 7 7 6 7 8 9 12 17 21 30 42 50 54 53 49 44 41 38 37 39
72 72 73 73 72 72 73 76 79 79 71 57 44 38 38 37 37 37 36 35 33 31 29 27 25 25 25 25 26 27 27 28 27 25 24 23 24 27 31 33 33 32 30 28 26 24 21 19 17 16 14 13 12 12 12 12 12 12 11 10 10 9 8 8 8 8 7 6 8 12 15 19 28 39 51 64 72 74 73 71 67 62 56 49 45
66 64 64 64 66 71 77 81 79 70 56 45 40 40 40 40 40 40 39 37 36 34 33 32 31 30 30 30 31 31 31 30 28 26 28 31 34 37 37 37 35 32 29 27 24 22 20 18 17 16 15 15 14 14 14 14 13 12 11 10 10 9 9 10 12 15 15 14 19 27 29 31 41 56 70 81 88 91 91 89 86 80 75 69 61
58 56 58 61 68 74 78 76 67 57 50 46 45 45 44 45 44 43 43 41 40 39 38 37 36 36 36 36 35 34 32 30 31 34 38 42 43 42 40 37 34 30 27 24 22 20 19 18 17 18 18 17 16 16 15 14 13 12 11 10 9 10 13 19 28 35 36 37 45 53 52 51 58 70 81 91 97 100 101 98 95 91 88 84 77
56 58 62 68 73 76 74 67 59 54 53 51 50 50 49 50 49 48 48 46 45 44 43 42 42 40 39 37 35 35 36 38 43 47 48 48 45 42 38 35 30 27 25 22 22 21 20 20 20 19 18 17 16 15 14 13 12 11 10 9 12 17 27 44 59 65 66 68 73 76 75 73 76 81 89 96 100 101 101 99 97 95 93 91 87
59 62 66 70 73 72 68 63 60 58 57 56 56 55 54 54 53 53 51 50 49 47 45 43 42 41 41 41 43 46 48 51 53 52 49 46 42 38 33 30 27 25 24 23 23 23 22 21 20 18 17 16 15 13 12 11 10 9 10 14 24 39 56 76 90 91 89 89 90 91 91 90 89 89 91 93 96 98 99 98 97 94 92 92 89
62 65 68 69 69 67 65 63 62 61 60 60 59 57 57 56 54 53 51 49 48 47 47 47 48 51 54 56 58 57 56 55 52 48 45 40 36 33 29 28 27 25 24 24 23 22 21 19 17 16 15 13 12 11 10 9 10 9 14 29 54 76 88 97 105 105 100 96 97 99 98 96 95 95 95 94 95 97 98 97 94 91 89 87 84
69 68 67 66 65 63 61 60 59 59 58 58 58 57 58 58 58 58 57 58 60 61 63 65 66 67 66 64 62 58 55 51 47 43 39 35 33 31 28 28 27 25 25 23 21 20 17 15 14 12 11 10 10 10 9 10 10 10 26 59 88 101 104 105 107 106 101 97 99 102 101 99 99 100 100 99 98 97 97 94 90 87 84 80 76
91 88 85 83 81 79 77 76 76 77 76 76 76 77 78 78 79 79 79 79 79 78 77 76 74 71 66 62 58 54 50 47 43 40 37 35 34 31 29 28 26 24 22 19 17 15 12 11 10 9 10 10 10 11 11 13 16 28 59 93 106 106 107 108 105 102 100 98 98 102 102 99 101 103 101 100 99 96 93 90 87 83 79 76 73
102 101 101 101 101 100 99 98 98 98 97 96 95 95 95 94 92 90 88 86 83 81 78 75 71 67 62 58 53 50 47 44 41 39 37 36 34 31 29 26 22 20 17 14 12 10 10 10 10 11 12 11 13 14 13 21 42 68 92 104 104 102 104 104 102 101 100 98 98 100 101 101 103 103 101 99 97 93 89 87 83 80 78 75 70
102 102 103 103 103 101 100 99 98 98 98 97 96 95 94 92 90 87 84 82 79 76 73 69 65 62 57 54 50 48 46 43 41 39 36 34 30 26 22 19 16 14 11 11 11 10 11 12 11 13 13 13 17 15 17 45 79 98 102 101 100 102 101 100 101 102 100 98 97 98 101 104 104 102 101 100 96 92 89 86 82 79 75 71 65
100 99 98 97 96 94 93 93 93 93 93 92 92 91 89 88 86 82 79 77 74 71 68 65 62 59 56 52 49 47 45 43 39 35 31 26 21 17 15 13 12 12 11 13 12 12 14 13 13 15 14 16 19 14 30 75 104 103 100 101 100 101 100 100 102 101 99 96 94 96 102 105 104 101 102 101 97 93 89 84 79 73 66 62 57
96 95 94 93 92 91 90 90 90 90 89 89 88 88 86 84 81 78 75 72 70 68 65 62 59 57 54 51 48 46 42 36 31 26 20 17 15 14 14 13 14 14 14 14 14 14 16 15 16 17 14 19 20 16 43 91 107 100 101 102 100 101 101 101 102 101 98 95 95 99 102 104 105 102 102 101 96 90 85 77 69 62 57 54 49
94 93 93 93 92 91 90 88 88 88 86 86 85 84 83 81 78 75 73 70 68 65 62 59 57 54 52 49 44 38 31 25 21 17 15 16 16 16 16 16 16 15 15 16 16 16 17 17 19 18 16 20 19 22 58 100 106 100 102 101 100 103 100 99 103 102 98 97 98 101 102 103 104 101 100 98 90 82 75 63 55 55 56 53 53
98 97 97 95 94 93 91 89 87 86 85 84 83 81 80 78 75 72 69 66 65 62 59 57 54 50 45 39 32 26 21 18 18 17 18 19 20 20 19 17 17 16 16 18 18 18 19 20 22 20 19 22 19 28 69 106 105 99 103 102 101 102 98 98 102 101 100 101 100 100 103 102 100 99 97 89 78 70 59 49 56 67 67 62 68
100 100 99 98 97 96 94 92 89 87 86 84 82 81 78 75 73 70 67 64 62 59 56 51 45 38 32 26 23 21 19 20 22 23 23 23 23 22 20 19 19 19 19 19 19 19 20 22 25 22 19 22 23 35 74 105 105 99 102 102 103 104 100 98 98 98 101 103 101 101 101 98 95 92 85 75 64 53 45 53 75 84 76 75 82
100 99 99 99 98 96 95 94 92 90 88 86 84 82 79 76 73 70 65 60 55 50 44 38 31 27 25 24 25 25 24 25 27 28 26 25 23 22 22 22 21 20 19 19 18 19 21 24 26 23 20 23 28 45 78 103 104 100 101 101 103 104 102 99 97 97 100 101 99 98 96 93 86 77 68 60 49 40 49 77 96 92 87 94 95
96 96 96 94 92 90 87 85 82 80 76 74 73 71 68 64 60 56 51 46 41 36 32 29 27 28 29 30 32 34 32 31 31 30 27 24 24 25 25 25 23 21 19 19 18 20 24 27 26 23 21 25 36 56 81 99 103 102 101 101 102 102 103 102 98 97 99 96 94 93 91 84 75 64 56 48 39 42 67 94 99 92 95 104 100
67 66 66 64 63 62 62 60 58 57 55 53 53 52 50 47 44 42 40 38 36 34 33 32 32 33 35 39 43 44 40 35 32 30 26 24 26 28 28 28 28 25 22 21 23 25 29 29 25 23 24 31 47 68 84 95 103 103 99 99 102 104 103 100 97 97 96 91 88 86 80 72 64 53 42 39 45 61 82 97 98 94 96 101 100
41 42 42 42 43 45 47 48 49 50 50 50 50 50 50 50 48 46 44 43 42 41 39 38 38 39 45 51 54 51 45 37 32 29 27 27 29 31 33 37 40 38 33 31 33 35 36 32 26 25 30 40 60 80 89 95 102 104 99 97 100 103 101 97 95 93 88 83 79 73 65 60 53 41 38 53 74 86 91 97 101 100 98 99 100
38 39 39 40 41 42 44 47 49 52 54 55 56 57 58 59 58 57 55 53 51 50 48 47 45 48 55 62 62 55 46 38 32 30 30 30 32 35 41 51 58 57 51 46 44 43 42 36 30 31 39 54 72 86 91 93 98 100 98 96 97 98 97 94 90 84 77 72 66 59 53 47 39 36 53 82 100 99 95 100 104 103 102 101 100
44 45 46 47 48 48 49 50 52 54 58 61 64 67 69 70 71 71 69 66 63 60 58 56 55 57 64 68 66 58 47 38 35 35 34 34 36 41 50 62 68 66 63 56 49 45 44 40 37 39 49 66 81 87 88 90 94 97 97 95 94 93 91 88 81 73 67 61 54 49 43 36 37 56 83 102 104 98 97 102 104 105 106 105 101
50 52 52 52 54 55 57 58 59 60 62 66 69 74 77 80 81 83 84 82 79 74 70 67 65 66 70 71 67 58 49 42 40 40 38 38 42 46 54 64 68 65 63 58 51 47 45 43 42 47 58 73 83 86 86 87 90 94 95 92 89 88 85 79 70 61 57 51 44 39 35 39 60 87 104 103 97 94 96 101 103 105 106 105 101
53 54 54 55 57 59 62 65 67 68 70 73 76 80 82 83 84 86 89 90 89 86 82 78 75 74 76 76 69 60 53 47 43 43 44 45 47 51 57 63 65 62 59 56 51 49 47 45 46 52 64 75 80 82 83 83 86 89 88 85 83 80 76 68 57 50 46 40 34 36 47 67 91 104 104 98 95 96 101 106 107 105 104 103 100
52 53 53 54 57 61 64 68 72 76 79 80 83 88 92 92 91 90 89 88 88 88 87 85 83 81 80 80 73 64 60 56 49 49 54 55 54 59 63 63 62 60 56 52 50 49 48 47 48 55 66 74 77 77 78 77 79 81 79 78 76 71 64 55 45 39 35 31 34 52 76 95 104 103 98 96 99 104 107 108 107 103 101 100 100
51 51 50 51 53 57 62 67 73 79 86 88 90 95 99 100 100 98 95 90 85 83 84 85 85 82 81 80 74 66 66 67 60 58 64 64 61 65 67 62 58 58 53 48 47 47 47 47 50 57 67 72 72 72 72 71 72 72 70 68 66 60 53 45 35 31 30 32 46 72 95 103 102 101 99 99 103 107 106 103 102 101 99 100 101
50 49 47 46 47 49 53 61 69 77 86 92 96 100 103 103 102 100 99 95 87 79 77 77 78 77 75 76 73 64 63 70 72 71 73 70 65 66 65 58 57 56 50 45 45 45 45 46 49 56 64 67 66 65 64 64 65 64 62 59 55 50 44 37 29 31 41 53 69 89 102 102 100 102 101 100 103 105 102 100 100 100 100 100 101
47 47 45 43 42 40 42 50 61 72 83 89 93 100 106 108 105 99 96 95 89 83 80 77 75 73 70 72 73 64 56 60 68 76 79 76 71 68 61 54 55 54 48 43 44 44 44 45 48 54 60 62 60 58 56 57 57 55 53 51 46 40 36 30 27 39 62 81 92 99 102 101 100 101 100 100 102 102 100 100 100 99 100 101 100
43 44 42 41 40 36 34 39 50 64 78 84 87 93 100 107 109 106 101 97 92 88 87 87 85 79 72 71 73 69 59 54 58 67 74 76 75 72 62 54 52 51 45 42 43 45 45 44 46 52 56 56 54 52 50 50 49 47 44 41 37 33 30 28 36 57 82 97 100 100 100 100 100 100 100 101 103 101 99 100 100 100 100 100 100
40 40 40 41 41 36 32 33 42 55 70 80 85 88 91 97 104 108 108 106 100 94 91 94 96 92 83 76 76 73 64 57 58 64 70 74 75 72 63 56 53 49 44 42 44 50 53 51 48 50 52 51 49 47 46 45 43 41 37 33 31 31 33 42 62 84 97 101 100 100 100 100 100 101 101 101 101 99 99 100 100 100 100 100 100
39 39 39 41 43 39 33 31 37 48 60 71 78 83 84 86 91 98 104 108 108 101 94 93 96 97 92 86 84 78 68 59 57 62 68 74 75 71 63 58 54 49 44 44 49 57 64 64 59 54 52 52 48 45 46 46 44 43 41 38 38 43 53 70 89 100 101 100 100 100 100 100 101 102 101 101 100 99 100 101 100 100 100 100 101
38 38 40 41 43 43 38 33 33 41 51 60 68 74 78 80 82 87 93 101 106 107 103 99 100 102 99 95 92 86 75 65 58 58 63 71 73 70 64 59 55 50 45 45 54 65 72 76 75 66 58 55 52 49 50 50 49 52 56 56 58 67 81 94 101 101 100 100 100 100 100 101 102 101 100 100 100 100 101 101 100 100 100 100 101
38 37 40 42 44 45 44 38 34 36 44 53 61 66 71 76 80 85 89 93 98 104 106 106 107 108 106 101 98 91 82 73 67 64 66 72 72 69 65 59 54 51 47 46 58 72 78 82 86 81 70 61 57 57 59 58 57 63 69 72 77 87 97 102 101 100 100 100 100 100 100 101 101 100 100 100 100 100 100 100 100 100 100 100 101
41 38 39 41 44 46 47 45 41 38 39 45 52 59 64 70 77 85 90 92 94 97 100 101 104 108 107 103 100 93 83 76 73 71 73 77 75 70 66 60 53 51 49 50 60 76 83 83 86 89 85 75 67 66 70 71 72 74 79 83 90 97 101 101 100 100 100 100 100 100 100 100 100 100 100 100 100 100 100 100 100 100 101 100 100
47 40 38 39 42 45 48 49 47 43 39 39 43 51 58 65 74 83 90 94 95 96 96 97 100 105 108 105 100 93 83 74 69 68 71 77 77 71 67 63 56 50 49 53 63 78 88 88 86 89 94 92 83 78 80 82 84 86 90 95 99 100 100 100 100 100 100 100 100 100 100 100 100 100 100 100 100 100 100 100 100 100 100 100 100
62 50 42 39 41 43 45 49 50 49 46 43 41 45 52 60 70 81 90 95 96 95 95 95 95 100 107 108 104 98 89 79 70 65 66 72 76 73 68 64 59 51 49 55 68 80 89 92 90 90 96 101 98 93 92 92 93 95 99 100 100 100 100 100 100 100 100 100 100 100 100 100 100 100 100 100 100 100 100 100 100 101 100 100 100
81 68 53 44 42 42 43 46 49 50 51 48 45 45 48 54 64 77 88 95 97 95 94 94 93 96 102 107 107 105 98 87 77 69 65 67 73 75 71 65 60 54 50 55 70 84 91 95 97 96 98 101 103 101 100 100 99 100 101 100 100 100 100 100 100 100 100 100 100 100 100 100 100 100 100 100 100 100 100 100 100 100 100 100 100
92 85 71 56 47 44 44 45 47 48 51 51 49 47 47 49 56 69 82 91 95 94 93 93 93 94 99 104 109 111 107 96 84 76 69 65 67 72 73 68 62 56 52 55 70 86 93 97 101 102 101 102 104 103 101 101 101 100 100 100 100 100 100 100 100 100 100 100 100 100 100 100 100 100 100 100 100 100 100 100 101 101 100 100 100
92 93 88 75 60 49 45 46 47 48 49 51 51 51 49 48 49 58 72 84 90 91 91 91 91 92 95 100 106 112 112 105 94 84 76 71 67 68 71 70 65 58 53 55 69 85 94 99 103 104 103 103 103 102 101 101 100 100 100 100 100 100 100 100 100 100 100 100 100 100 100 100 100 100 100 100 100 100 100 100 100 101 101 101 101
89 92 94 90 80 66 54 48 48 50 50 51 52 53 53 52 49 52 62 75 85 89 89 88 89 90 91 94 100 107 110 108 100 90 83 78 73 70 70 71 68 62 54 54 66 84 96 100 103 104 103 103 102 101 100 100 100 100 100 100 100 100 100 100 100 100 100 100 100 100 100 100 100 100 101 100 100 100 100 100 100 100 101 102 102
88 89 93 95 94 87 74 59 51 50 51 53 53 53 54 55 54 52 55 64 75 84 87 87 87 88 89 90 94 100 106 107 103 95 87 82 78 75 73 72 71 66 58 53 63 82 97 103 104 102 101 101 101 100 100 100 100 100 100 100 100 100 100 100 100 100 100 100 100 100 100 100 100 100 100 100 100 100 100 100 100 101 101 102 101
89 90 91 94 96 97 92 80 65 54 51 52 54 54 53 54 56 56 54 56 64 74 82 86 86 86 87 88 90 94 101 106 105 98 90 85 82 78 75 73 72 70 63 56 60 77 95 105 105 102 100 100 101 101 100 100 100 100 100 100 100 100 100 100 100 100 100 100 100 100 99 100 100 101 100 100 100 100 100 100 101 100 100 101 101
92 92 92 92 93 95 97 95 86 71 58 52 54 57 57 55 55 57 57 57 58 64 73 81 86 86 85 86 88 91 95 101 106 102 94 87 85 82 78 76 74 71 67 61 60 71 90 103 104 101 100 100 101 100 100 100 100 100 100 100 100 100 100 100 100 100 100 100 100 100 99 99 100 100 100 100 100 100 100 101 101 100 100 101 101
97 96 95 94 94 93 94 97 98 91 77 63 54 55 59 60 58 57 58 59 60 60 64 72 81 86 86 84 85 88 92 97 104 106 99 90 86 84 81 78 75 73 70 66 63 69 85 99 102 100 100 100 100 100 101 100 100 100 100 100 100 100 100 100 100 100 100 100 100 100 100 100 100 100 100 100 100 99 100 100 100 100 100 100 100
101 100 99 98 97 96 95 96 98 100 96 83 67 56 56 60 62 60 58 58 61 62 62 65 72 82 88 86 83 85 89 93 99 104 103 95 89 87 84 80 76 74 72 69 66 70 83 97 101 99 99 101 100 100 100 100 100 100 100 100 100 100 100 100 100 100 100 100 100 100 100 100 100 100 100 100 100 99 100 100 100 100 100 100 100
100 101 101 102 102 101 99 98 97 99 101 99 87 71 58 56 62 64 61 58 58 61 63 64 65 72 83 88 86 83 85 89 94 101 104 100 93 89 87 84 79 75 74 72 68 69 81 95 101 100 100 101 101 100 100 100 100 100 100 100 100 100 100 100 100 100 100 100 100 100 100 100 100 100 100 100 100 100 100 100 100 100 100 100 101
100 100 101 102 104 103 100 100 99 99 99 101 100 90 73 60 58 63 66 63 59 58 61 64 65 66 73 83 88 85 83 84 90 96 102 102 97 92 90 88 83 77 75 75 71 69 78 92 100 101 100 101 101 101 100 100 100 100 100 100 100 100 100 100 100 100 100 100 100 100 100 100 100 100 100 100 100 100 100 100 100 100 100 101 103
101 101 100 100 102 102 101 101 102 101 99 99 102 102 92 74 61 60 65 67 64 60 57 59 63 65 68 76 85 88 86 83 85 91 98 102 100 96 92 90 87 81 77 76 75 71 75 87 98 101 101 101 101 101 100 100 100 100 100 100 100 100 100 100 100 100 100 100 100 100 100 100 100 100 100 100 100 100 100 100 101 100 101 103 104
100 101 100 100 100 101 101 101 101 101 100 99 99 102 102 91 72 61 62 67 68 65 59 56 58 62 66 70 78 86 89 86 84 86 93 99 101 98 94 92 90 85 79 78 78 74 74 82 95 101 101 100 101 100 100 100 100 100 100 100 100 100 100 100 100 100 100 100 100 100 100 100 100 100 100 100 100 100 100 100 100 100 101 102 104
Wind_Speed
86 87 87 88 89 89 89 90 90 89 89 88 86 84 82 79 78 77 77 77 77 77 77 77 77 77 77 78 78 79 80 80 81 81 82 82 83 84 84 85 85 85 85 86 86 86 86 86 86 86 87 88 87 87 88 88 89 89 89 89 88 88 89 90 91 88 85 86 86 86 88 89 89 90 90 91 93 95 97 98 99 100 100 101 101
87 88 89 89 89 89 89 89 88 87 86 84 82 80 79 78 77 77 77 78 78 78 77 77 77 78 78 78 79 79 80 81 82 83 83 84 84 85 85 86 86 86 86 85 85 86 86 86 86 87 88 88 88 88 88 88 89 88 87 87 87 86 87 89 89 87 85 86 86 86 87 88 87 87 87 88 89 91 92 94 95 97 98 98 98
88 88 88 87 87 86 86 85 85 83 81 79 78 77 77 77 77 77 77 77 77 77 77 77 78 78 79 79 80 81 82 82 83 84 85 85 86 86 87 87 87 86 86 85 85 86 87 87 87 87 89 89 88 88 88 87 87 87 86 86 86 86 86 87 88 87 85 85 85 85 86 86 86 85 85 85 86 87 88 89 91 93 94 95 96
84 84 84 83 83 83 82 81 80 78 77 76 75 75 75 76 76 76 76 76 76 77 77 78 78 79 80 81 82 83 83 84 85 86 87 87 87 87 87 87 87 86 86 86 87 88 88 88 88 88 89 90 89 88 87 86 86 86 85 85 86 85 85 86 86 85 84 83 83 83 84 84 83 83 82 82 83 84 84 85 86 88 89 91 92
82 82 81 80 80 79 78 76 75 74 74 73 73 74 74 75 75 75 76 76 77 77 78 79 80 81 82 83 83 84 85 86 87 87 88 88 88 87 87 87 87 87 87 88 89 89 89 89 89 89 90 89 88 87 86 85 85 86 85 85 85 85 84 83 82 81 81 80 79 79 81 80 80 80 79 78 79 80 80 82 83 84 85 86 87
82 81 79 78 76 75 73 72 72 71 71 71 72 73 73 74 75 76 76 77 78 79 80 81 82 83 84 85 85 86 87 88 88 88 88 87 87 86 86 87 87 88 89 90 90 91 90 90 89 89 89 88 87 86 86 86 86 86 85 84 84 83 81 79 77 77 76 75 74 75 76 76 76 76 76 75 75 76 77 78 80 81 82 83 83
77 76 74 73 72 71 70 70 70 70 70 71 71 72 73 74 75 76 77 78 79 80 81 82 83 84 85 86 87 87 88 88 88 87 87 86 86 86 87 88 89 90 91 91 91 91 91 90 89 89 89 88 88 87 87 87 86 85 83 81 79 78 76 75 73 72 71 70 70 70 71 71 72 72 72 72 72 73 74 75 76 78 80 81 81
71 70 70 69 69 68 69 69 69 70 71 71 72 73 74 76 77 78 79 80 81 82 83 84 85 86 86 87 87 87 87 86 86 86 86 87 87 88 89 90 91 91 91 91 91 91 91 90 90 90 90 90 89 88 87 86 84 81 79 76 74 73 72 71 70 69 68 67 67 67 67 68 68 68 69 70 70 70 71 73 74 76 78 79 79
69 69 69 69 69 69 69 70 71 71 72 73 74 75 76 77 78 80 81 81 82 83 84 85 85 85 85 85 85 85 85 85 86 87 88 89 90 90 91 91 91 91 91 91 91 91 92 92 91 91 91 89 87 85 83 81 79 76 73 69 68 68 68 68 68 67 66 65 64 64 65 64 64 65 66 66 67 67 69 72 72 73 76 77 77
68 69 69 70 70 70 71 71 72 73 74 75 76 77 78 79 79 80 81 81 82 82 82 83 83 83 83 83 83 84 85 86 87 89 90 91 91 92 91 91 91 91 90 90 91 92 92 92 91 89 87 85 82 80 77 75 73 70 67 64 64 65 65 65 65 64 64 63 62 62 62 62 61 62 62 63 64 66 68 70 71 72 74 74 73
68 68 69 70 70 71 71 72 73 74 75 75 76 77 77 78 78 79 79 79 79 79 80 80 80 81 82 82 83 84 85 87 88 89 90 91 92 92 92 91 91 91 91 91 91 90 89 87 85 82 80 78 76 73 71 69 68 65 62 61 62 63 63 62 62 61 61 61 60 61 60 60 60 61 61 62 63 65 66 68 69 70 71 71 70
68 68 69 70 70 71 71 72 72 73 74 74 75 75 75 76 76 76 76 77 77 78 79 79 80 82 83 84 84 85 86 87 88 88 89 90 91 92 92 92 91 91 90 89 87 84 81 78 76 73 72 71 70 68 66 65 63 62 60 60 61 61 61 60 60 60 60 59 59 59 58 58 59 59 60 61 62 64 65 66 66 67 68 68 66
69 69 70 71 71 71 71 71 72 72 72 73 73 74 74 75 75 76 76 77 78 78 79 81 82 83 84 85 85 85 86 87 88 88 88 89 90 91 91 90 88 86 84 81 78 75 72 69 67 66 65 65 65 64 63 61 60 60 60 61 61 61 60 59 59 59 59 58 58 57 57 58 58 58 59 61 62 62 63 63 64 65 65 65 63
70 70 71 71 72 72 72 72 72 73 73 73 74 74 75 76 76 77 77 78 79 80 81 82 82 83 84 84 84 84 85 86 87 87 87 88 87 87 86 84 81 77 74 72 69 66 65 63 62 60 59 59 60 61 60 59 59 59 60 60 60 60 60 59 59 59 58 57 56 56 56 57 57 58 59 60 60 60 61 61 62 63 63 62 61
71 72 72 73 73 73 73 73 74 74 75 75 76 76 77 78 78 79 79 80 81 81 82 82 82 83 83 84 83 83 84 85 85 85 84 83 81 79 77 75 72 69 67 65 64 62 60 60 58 57 55 55 56 58 58 58 59 59 59 59 59 59 59 58 58 58 57 56 56 55 56 57 57 58 59 60 59 59 59 59 60 60 60 60 58
73 73 74 75 75 75 75 75 76 76 76 77 77 78 78 79 80 80 80 80 81 81 81 81 81 81 81 82 81 81 81 82 81 79 77 75 73 71 69 68 66 64 62 62 62 60 58 56 55 53 52 52 53 55 56 57 58 58 58 58 58 58 57 57 56 56 56 56 55 55 56 57 57 57 58 58 57 57 58 57 57 57 57 56 55
73 74 75 75 76 76 77 77 77 77 78 78 78 79 79 79 80 80 80 79 79 79 78 78 78 78 78 78 78 77 75 75 74 72 69 67 66 65 64 63 62 61 60 60 59 57 55 53 52 50 49 49 51 52 54 57 57 56 57 57 57 57 56 56 56 55 55 55 54 54 55 55 56 56 56 56 55 55 55 54 54 54 54 53 51
74 75 75 76 76 77 77 77 77 77 77 78 78 78 78 78 78 78 78 77 76 76 76 75 75 75 74 73 73 71 69 68 67 65 62 61 61 61 61 61 60 59 58 56 55 54 51 49 48 47 46 47 48 49 52 55 56 55 55 55 55 55 54 54 54 54 53 53 53 53 53 54 54 54 54 54 54 54 53 52 52 52 51 50 49
74 75 75 76 76 77 77 77 77 77 77 76 76 76 76 76 76 75 75 75 74 73 73 72 70 69 68 67 66 65 63 62 61 59 58 57 57 57 58 58 58 57 55 52 50 49 47 46 45 45 44 44 46 47 50 53 54 53 53 53 53 53 52 53 53 53 52 52 52 52 52 52 52 52 52 52 52 52 50 49 49 49 47 47 48
73 74 74 74 75 75 76 76 76 76 76 75 75 75 75 74 74 73 73 72 71 70 69 67 65 63 62 61 61 61 60 58 56 55 55 54 53 54 54 54 54 53 50 47 44 43 43 43 42 42 42 43 44 45 47 51 52 52 51 51 50 50 51 52 52 51 51 51 51 51 50 50 50 50 50 50 50 50 48 48 48 47 46 46 47
72 73 73 73 74 74 74 75 75 75 75 74 73 73 73 73 72 72 70 69 68 66 64 62 59 57 56 56 56 57 57 55 52 52 52 51 50 50 50 49 49 48 45 41 39 38 39 40 40 40 41 41 42 43 45 48 50 51 49 48 48 48 49 50 50 50 50 50 49 49 48 48 48 48 48 48 49 49 47 46 46 46 46 46 46
70 71 71 71 72 72 72 73 73 72 72 71 70 70 70 70 69 68 67 65 63 61 59 57 54 52 51 52 53 54 54 52 50 49 48 47 46 45 44 43 43 42 40 36 32 32 35 37 38 39 40 40 40 41 43 45 48 48 47 46 47 47 48 48 48 48 48 48 47 47 47 47 47 46 46 46 47 47 46 44 44 46 46 46 46
67 68 69 69 69 69 69 69 69 69 69 68 67 66 66 65 65 64 63 60 58 57 55 53 50 48 47 47 49 51 51 50 48 47 46 45 43 40 39 38 37 37 35 31 28 29 33 35 36 38 39 39 39 40 41 43 45 45 45 45 46 46 47 46 46 46 46 46 46 45 45 45 45 45 45 45 46 46 44 42 43 45 46 46 46
66 66 67 67 67 67 67 67 67 66 66 65 64 63 62 61 60 60 59 57 55 53 51 49 47 45 43 43 44 47 48 47 46 46 45 42 39 36 35 35 34 33 32 29 27 28 32 34 35 37 38 38 39 39 40 41 42 43 44 45 45 45 45 44 44 44 43 43 43 42 43 43 43 44 44 44 44 44 42 42 43 44 45 45 45
64 65 65 65 65 64 64 64 64 63 63 62 61 61 59 58 57 56 55 54 53 51 48 47 45 42 40 40 41 43 45 44 43 43 43 40 36 33 32 32 31 31 31 29 27 28 30 32 34 36 37 38 38 38 39 39 40 41 42 44 44 44 43 42 41 42 42 41 40 39 40 41 42 43 43 43 43 42 41 41 42 43 43 43 43
62 62 62 62 62 62 61 60 60 60 60 60 59 59 58 57 55 54 53 51 50 49 46 44 43 40 38 38 38 39 41 42 41 41 41 38 33 31 31 31 31 30 30 28 27 28 29 31 33 35 36 36 36 36 37 38 39 40 41 42 43 42 40 39 39 40 40 39 37 37 39 41 42 42 43 42 41 40 39 39 39 40 41 42 41
60 60 60 60 60 60 59 58 57 56 56 56 56 56 56 55 54 53 52 50 48 47 45 43 41 38 35 35 35 36 37 39 40 40 39 36 32 30 31 32 31 30 28 26 25 26 28 30 32 34 34 34 34 35 36 37 38 39 40 41 41 40 39 37 37 38 38 37 37 38 39 41 41 42 41 40 39 38 36 37 38 40 40 40 38
60 59 59 59 59 58 57 56 55 54 53 53 53 53 53 53 52 51 51 49 47 45 42 40 38 35 33 32 32 31 32 35 37 38 37 33 30 29 31 31 30 29 27 25 24 25 27 29 31 33 33 33 33 34 35 36 37 38 40 40 40 39 38 36 36 36 37 37 38 38 39 40 41 41 40 39 37 36 36 37 39 39 39 37 36
59 59 59 59 58 57 56 55 53 52 51 50 50 50 51 51 50 48 48 47 46 44 42 39 36 33 31 30 30 28 26 28 33 36 35 30 27 28 29 29 28 28 26 24 23 24 26 27 30 32 33 33 33 33 34 35 36 38 39 39 38 37 36 36 36 37 38 38 39 38 39 39 40 39 38 37 36 36 37 38 38 38 37 36 35
59 59 59 58 57 56 54 53 51 50 49 48 47 46 46 48 49 48 46 44 44 45 43 40 37 34 30 29 28 27 24 24 27 31 31 28 26 27 28 27 25 25 25 24 23 23 24 26 29 31 32 32 32 33 33 34 35 36 37 37 36 35 35 36 38 38 38 38 38 37 38 39 38 37 36 36 36 36 38 38 37 37 36 36 35
59 59 58 58 57 56 54 51 49 47 47 46 45 43 41 41 43 46 46 44 42 43 43 41 38 36 33 30 28 26 24 23 24 27 27 26 26 27 27 25 24 23 23 23 22 22 23 25 28 30 31 32 32 32 32 33 34 34 34 34 34 34 36 37 39 38 38 38 37 37 38 37 36 35 35 36 37 37 38 37 36 36 36 35 35
60 59 58 57 57 56 54 51 49 46 45 44 44 42 40 36 35 38 42 44 43 42 42 40 38 36 35 33 30 26 23 22 23 24 24 23 25 26 25 24 23 23 22 21 20 21 22 24 27 29 31 31 31 31 31 32 32 32 32 33 34 35 37 38 38 37 37 37 38 38 37 36 35 35 36 36 37 37 37 36 35 35 35 35 35
61 60 58 57 57 56 54 52 49 46 44 43 42 41 39 36 32 31 34 38 41 41 41 40 37 34 33 33 32 28 24 22 22 22 21 21 23 24 23 22 22 22 21 20 20 20 22 23 26 28 30 30 30 31 31 31 31 31 32 34 35 36 37 37 37 36 37 37 38 37 36 35 35 36 36 37 37 37 36 36 35 35 35 35 35
62 60 59 58 57 56 54 52 49 47 44 43 42 40 38 36 34 31 30 31 33 36 38 40 38 34 31 31 31 29 26 23 22 21 20 19 21 22 22 20 20 20 20 19 19 20 22 23 25 28 29 29 30 30 30 30 31 31 33 34 35 35 36 36 36 36 37 37 37 37 36 35 36 36 36 37 37 37 37 36 36 35 36 35 35
62 61 60 59 58 57 55 53 51 48 46 44 42 40 38 35 34 33 32 30 29 30 31 34 36 34 31 29 29 28 26 23 22 21 20 20 20 21 21 20 19 19 19 19 19 20 22 23 24 26 28 29 29 30 30 31 31 32 33 34 34 34 35 35 35 36 37 37 36 36 35 35 36 36 36 37 37 37 37 36 36 36 36 36 36
63 62 60 59 58 57 56 54 52 49 47 45 42 40 38 36 34 33 32 32 30 28 28 28 30 32 30 27 26 26 25 23 21 20 19 20 21 20 20 20 18 17 18 19 19 20 22 23 24 25 27 29 29 30 30 31 32 32 33 34 34 34 34 35 36 36 37 37 36 35 35 35 35 35 36 37 37 37 37 37 37 37 37 37 37
63 62 61 60 58 57 56 55 53 51 48 46 43 41 38 36 34 33 32 32 31 29 28 26 26 28 28 27 26 25 24 22 20 18 17 18 20 20 20 19 18 17 17 18 19 20 22 24 25 25 26 28 29 30 30 31 32 32 33 34 34 34 35 36 36 37 37 37 36 35 35 35 35 35 36 37 37 37 37 37 37 37 38 38 37
64 63 62 61 59 58 57 55 54 52 50 47 45 42 38 36 34 33 32 32 31 30 28 26 25 24 25 26 25 24 24 22 20 18 16 16 18 19 19 19 18 17 17 18 19 20 22 23 25 26 26 27 29 30 30 31 32 33 33 34 34 34 35 36 37 37 37 36 36 35 35 35 35 35 35 36 37 37 37 38 38 38 38 37 37
64 63 63 62 60 59 57 56 54 53 51 49 46 43 40 37 34 32 32 31 31 30 29 27 25 23 23 23 24 23 23 23 21 19 17 15 16 17 18 18 18 17 17 17 18 20 22 23 25 26 27 28 29 29 30 31 33 33 34 34 34 34 35 36 37 37 36 36 36 35 35 35 35 35 35 36 37 38 38 38 38 38 38 37 37
63 63 63 63 62 60 59 57 55 54 52 50 48 45 42 38 35 32 31 30 30 30 29 27 25 24 22 22 22 22 22 22 22 20 18 16 15 16 17 17 17 17 17 17 18 20 21 23 25 26 28 29 29 30 30 31 33 34 34 34 34 34 35 36 36 36 36 35 35 35 35 35 35 35 36 37 38 39 39 38 38 37 37 37 37
63 64 63 63 63 61 60 59 57 55 54 52 50 47 44 41 37 34 31 30 29 29 29 28 26 24 22 22 21 21 20 20 21 21 19 18 16 15 16 16 17 17 17 17 18 19 21 23 25 27 28 30 30 30 30 31 32 33 34 34 34 35 35 35 35 35 34 34 34 34 35 35 36 36 37 38 39 39 39 38 37 37 36 36 35
63 63 64 64 63 63 62 60 59 57 55 53 52 49 46 43 40 36 33 30 29 28 28 28 27 25 23 21 21 20 19 19 19 19 19 19 18 16 16 16 16 16 16 17 17 19 21 23 25 27 28 30 31 31 31 32 32 33 33 34 34 35 36 35 35 34 34 33 33 34 35 36 36 37 38 39 39 39 38 37 37 36 35 34 33
62 63 63 64 64 64 63 62 60 59 56 54 53 51 48 45 42 38 35 32 30 28 27 27 27 26 24 22 21 20 19 18 18 18 18 18 18 17 16 16 16 16 16 17 17 19 20 23 25 27 28 30 31 31 32 32 32 33 33 33 34 35 36 36 35 35 35 34 34 34 35 35 36 37 38 39 39 39 38 36 34 33 32 32 31
62 62 63 63 64 64 64 63 62 60 59 56 54 52 50 47 44 41 37 34 31 29 27 26 26 25 24 23 21 21 20 18 18 17 17 18 18 17 17 16 16 16 16 16 17 19 20 22 25 27 29 30 31 32 32 33 33 33 33 33 33 34 35 35 35 35 35 35 36 36 36 37 37 38 38 39 38 37 36 34 32 30 30 30 30
61 61 62 62 63 63 64 64 63 62 60 59 56 54 52 50 47 43 40 36 33 31 29 27 26 25 24 23 22 21 20 19 18 17 17 17 17 17 17 16 16 16 16 16 17 19 20 22 25 27 29 30 31 32 33 33 33 33 33 33 33 33 34 34 34 35 35 36 36 37 37 38 38 38 39 39 38 37 35 33 31 30 30 30 31
61 61 61 61 62 62 63 64 64 63 62 61 58 56 54 51 49 46 42 39 35 32 30 28 26 25 24 24 23 21 21 20 19 18 17 16 16 17 17 17 16 16 16 16 17 18 20 22 24 27 28 30 31 32 33 33 33 33 33 33 33 33 33 33 34 34 35 36 36 37 37 37 38 38 38 38 37 36 35 33 31 31 31 32 32
61 62 62 62 62 62 62 63 63 64 63 62 60 58 56 53 50 48 45 41 37 34 31 29 26 25 24 24 23 22 21 20 19 18 17 17 16 16 16 17 16 16 16 16 17 18 20 22 24 26 28 30 31 32 33 33 33 33 33 33 33 33 33 33 34 34 35 35 36 36 37 37 37 37 37 37 36 35 34 32 32 32 32 32 33
62 62 62 62 62 62 62 62 63 63 63 63 62 60 58 55 52 49 47 44 40 36 33 30 27 25 24 23 23 22 21 21 20 19 18 17 16 16 16 16 17 16 16 16 16 18 20 22 24 26 28 30 31 32 32 33 33 33 34 34 34 33 33 33 34 34 34 35 35 36 36 36 36 36 36 36 35 34 33 32 33 33 32 32 33
63 63 63 63 63 62 62 62 62 63 63 63 63 62 60 57 54 51 49 46 43 39 35 32 29 26 24 23 22 22 21 21 20 19 19 18 17 16 16 16 17 17 17 16 16 17 19 21 24 26 28 30 31 32 32 33 33 33 34 34 34 34 34 34 34 34 34 34 34 35 35 35 35 35 35 35 34 33 33 33 33 32 32 32 33
63 63 63 63 63 63 62 62 62 62 63 63 63 63 61 59 56 53 50 48 45 42 38 34 31 27 25 23 22 21 21 20 20 20 19 19 18 17 16 16 17 17 17 17 17 17 18 21 24 26 28 30 31 32 32 33 33 34 34 34 34 34 34 34 34 34 34 34 34 34 34 34 34 34 34 34 34 33 33 33 33 32 32 32 33
63 64 64 64 63 63 63 62 62 62 62 62 63 63 63 61 58 55 52 49 47 44 41 38 33 29 26 23 22 20 20 20 20 19 19 19 19 18 17 16 17 17 17 18 17 17 18 20 23 26 28 30 31 32 32 33 33 34 34 34 34 34 34 35 34 34 34 33 33 33 33 33 34 34 34 34 34 34 34 33 33 32 32 33 34
Wind_Direction
285 286 287 288 288 288 288 288 287 287 286 285 284 283 281 279 277 275 274 273 274 274 275 275 276 276 276 277 277 278 279 279 280 280 281 282 282 282 282 282 282 282 282 281 281 280 279 279 279 278 278 278 278 277 277 277 277 276 274 273 271 270 269 268 268 266 263 261 259 257 256 254 252 251 250 249 248 248 248 248 249 249 249 248 247
289 290 290 290 289 289 288 287 286 286 285 284 282 281 278 276 274 273 273 273 274 275 275 276 276 277 277 278 278 279 279 280 280 281 282 282 282 283 283 283 282 282 281 281 280 279 279 279 279 279 278 278 278 278 277 277 276 274 273 271 270 269 268 268 267 265 263 261 260 258 256 254 252 251 250 249 248 248 248 247 248 249 250 250 249
291 291 290 290 289 288 287 286 286 285 284 282 280 278 276 274 274 273 273 274 275 276 276 277 277 278 278 278 279 279 280 280 281 282 282 283 283 283 283 282 282 281 280 280 279 279 279 279 279 279 278 278 278 277 277 276 274 273 271 270 269 268 268 267 266 264 262 260 258 257 255 254 252 251 250 249 248 248 248 248 248 248 249 250 250
291 291 290 289 288 287 286 286 285 283 282 280 278 277 275 274 274 274 275 275 276 277 277 278 278 278 279 279 280 280 281 282 282 283 283 283 283 283 282 282 281 280 280 280 280 280 280 279 279 279 278 278 277 277 275 274 272 271 271 270 269 268 267 266 264 263 261 259 257 256 254 253 252 251 250 249 248 248 248 248 248 248 248 249 250
291 291 290 289 288 287 286 285 284 282 280 279 277 276 276 275 275 275 276 276 277 278 278 279 279 279 280 280 281 282 282 283 283 283 283 283 282 282 281 281 280 280 280 280 280 280 280 280 279 278 278 277 276 275 274 273 272 271 270 269 268 267 265 264 262 261 260 258 256 254 253 252 251 250 250 249 248 248 248 248 248 248 248 248 249
290 290 289 289 288 287 285 284 282 281 279 278 277 277 276 276 276 277 277 278 278 279 279 280 280 280 281 282 282 283 283 283 283 283 282 282 281 281 281 281 281 281 281 281 281 281 280 280 279 278 277 276 275 274 273 272 271 270 269 268 266 265 263 261 259 258 257 256 254 253 252 251 250 250 249 248 248 247 247 247 248 248 248 249 249
290 289 288 288 287 285 284 283 281 280 280 279 278 278 278 278 278 278 278 279 279 280 280 280 281 282 282 283 283 283 283 283 283 282 281 281 281 281 281 281 281 281 282 281 281 281 280 279 278 277 276 276 275 274 273 271 270 268 267 265 263 261 260 258 256 255 255 254 252 252 251 250 249 249 249 248 247 246 246 246 247 247 247 248 248
292 291 290 289 287 286 284 283 282 282 281 280 280 280 279 279 279 280 280 280 280 281 281 282 282 283 283 283 283 283 283 282 282 282 281 281 281 281 282 282 282 282 282 281 281 281 280 279 278 277 276 275 274 272 271 269 267 265 263 261 259 258 256 255 254 254 253 252 251 250 250 249 248 248 247 247 246 246 246 245 245 245 246 246 247
293 292 291 290 288 287 286 285 284 283 283 282 282 281 281 281 281 281 281 282 282 282 283 283 283 283 283 283 283 283 283 282 282 282 282 283 283 283 283 283 282 282 282 282 281 281 280 279 278 277 275 274 272 270 267 265 263 261 259 257 255 254 253 252 252 252 252 251 250 249 248 248 247 247 246 246 245 244 244 244 243 244 245 246 246
294 292 291 290 289 288 287 286 286 285 285 284 284 283 283 283 283 283 283 283 283 283 283 283 283 283 283 283 283 283 284 284 284 284 285 284 284 284 283 283 283 283 282 282 281 281 280 279 277 275 273 271 268 265 263 261 259 258 255 253 251 251 251 251 250 250 250 249 248 248 247 246 246 246 245 245 244 243 242 243 243 243 245 246 247
293 292 291 290 289 289 288 287 287 286 286 286 285 285 285 284 284 284 284 284 284 284 284 284 284 284 284 284 285 285 286 286 286 286 286 286 286 285 285 284 284 284 283 282 281 280 279 277 275 272 270 267 264 261 258 257 255 254 252 250 249 249 249 249 249 249 249 248 247 247 246 245 245 245 244 243 243 242 242 242 243 244 245 247 248
294 293 292 292 291 290 290 289 288 288 288 287 287 287 287 286 286 286 286 286 286 286 286 286 286 286 286 287 287 287 287 287 287 287 287 287 287 286 286 286 285 285 284 282 281 279 276 274 271 269 266 263 260 257 254 252 251 250 249 248 247 247 247 248 248 248 248 247 246 246 245 244 243 243 242 242 242 241 241 242 243 244 246 247 248
296 295 294 294 293 292 291 291 290 290 290 289 289 289 289 288 288 288 288 288 288 288 288 288 288 288 288 288 289 289 289 288 288 288 288 288 288 287 287 287 286 284 283 281 279 277 274 272 269 266 263 260 256 252 250 249 248 247 247 246 246 246 246 246 247 247 247 247 246 245 244 243 242 241 241 241 240 241 241 242 243 244 246 247 247
297 297 296 295 294 294 293 293 292 292 292 291 291 291 290 290 290 290 289 289 289 289 290 290 290 290 290 290 290 290 290 289 289 289 289 289 288 287 287 286 284 283 281 279 277 275 273 270 268 265 262 257 252 249 246 245 245 245 245 245 244 245 245 246 246 246 246 246 245 244 243 243 242 241 241 241 240 241 241 242 243 244 245 246 246
299 298 297 296 296 295 295 294 294 293 293 293 292 292 292 291 291 291 291 291 291 291 291 291 291 291 291 291 291 291 290 290 290 289 289 288 287 286 285 284 283 281 280 278 276 274 272 269 266 263 260 255 249 245 242 241 242 243 243 243 244 244 244 245 245 245 245 245 244 243 243 242 241 241 241 241 240 240 241 241 242 243 244 246 247
299 299 298 298 297 296 296 295 295 294 294 293 293 293 292 292 292 292 292 292 292 292 292 292 291 291 291 291 291 291 291 290 289 289 288 287 286 285 284 283 282 281 280 278 277 274 271 268 265 262 258 252 246 242 240 239 240 241 241 242 243 243 243 244 244 245 244 243 242 242 242 242 241 241 241 241 240 240 240 241 242 243 244 245 246
300 300 299 298 297 297 296 295 295 294 294 293 293 293 292 292 292 292 291 291 292 292 292 292 292 292 291 291 291 290 290 289 288 288 287 286 285 284 283 283 282 281 280 278 276 273 269 266 263 260 256 250 243 239 238 238 239 239 239 240 241 242 242 243 244 244 244 243 242 241 241 242 241 241 241 241 241 240 240 240 241 242 243 243 243
301 301 300 299 298 298 297 296 295 295 294 294 293 293 293 292 292 292 292 292 291 291 291 292 292 292 292 291 291 290 289 288 288 287 287 286 285 285 285 284 283 282 281 278 275 271 266 262 260 258 254 247 241 238 236 237 238 238 239 240 240 241 242 242 243 243 243 243 242 240 240 240 241 241 241 241 240 240 239 239 240 241 241 241 240
301 301 300 299 299 298 298 297 297 296 296 295 295 294 294 293 293 293 293 293 292 292 292 292 293 293 293 292 292 290 289 288 288 288 287 286 286 286 286 285 284 283 281 277 272 267 262 259 257 256 251 243 238 237 236 236 237 238 238 239 240 240 241 242 242 242 241 241 241 240 239 239 240 240 240 240 240 239 237 237 238 239 239 238 237
303 302 301 301 300 299 299 298 297 297 296 296 296 295 295 294 294 294 294 294 294 294 294 294 294 294 294 293 292 291 290 289 289 288 287 287 287 287 287 287 285 283 280 275 269 262 258 256 255 253 247 240 237 236 236 236 237 238 238 238 239 239 240 240 241 241 240 240 240 239 239 238 239 240 240 239 238 237 235 235 236 236 235 234 234
305 304 303 302 301 301 300 299 298 298 297 297 296 296 295 295 295 294 294 294 294 294 294 294 294 294 294 293 292 291 290 290 290 288 288 288 288 289 288 287 285 283 279 275 268 260 255 254 253 249 243 237 236 236 235 235 236 237 237 237 237 238 238 239 239 239 240 239 239 239 239 238 239 239 238 237 236 235 234 235 235 235 233 233 233
307 306 305 305 304 303 302 301 300 299 299 298 297 297 296 296 295 295 295 294 294 294 294 294 294 295 294 294 293 292 291 291 290 289 288 289 290 290 288 286 284 283 280 276 267 259 254 252 250 245 239 236 235 235 235 235 236 236 236 236 236 237 237 237 238 238 238 239 239 239 239 239 238 237 235 234 234 234 234 233 233 232 232 232 233
310 309 308 307 306 305 304 303 302 301 300 300 299 298 297 297 296 296 296 295 295 295 295 295 295 294 294 294 294 293 292 292 291 290 290 291 291 290 287 285 284 283 281 276 264 253 250 249 246 241 237 234 234 235 234 234 235 235 235 235 235 235 236 236 237 237 237 237 238 238 238 238 236 234 232 230 232 233 232 231 230 230 230 232 234
312 311 310 309 308 307 306 305 304 303 302 301 300 299 299 298 297 297 297 297 296 295 295 295 294 294 293 293 294 293 293 292 292 291 292 292 292 290 286 284 283 282 279 273 261 249 245 244 241 238 235 233 234 235 234 233 233 234 234 234 235 234 234 234 236 236 236 237 237 238 237 236 233 230 229 229 230 231 230 229 228 228 230 232 235
315 314 313 311 310 309 308 307 306 305 304 303 302 300 299 299 298 298 297 297 296 296 295 294 294 293 293 293 293 293 292 291 291 291 292 292 292 289 286 283 282 279 276 270 261 251 245 241 237 235 232 232 233 234 234 233 232 232 233 234 234 233 233 233 234 235 235 235 236 236 235 231 228 227 227 228 229 230 229 228 228 228 230 233 235
318 317 316 315 314 312 311 310 309 308 306 305 303 302 301 300 299 298 298 297 297 296 295 294 293 293 293 294 294 293 292 291 291 291 291 292 292 290 287 284 282 280 276 271 263 256 248 241 236 233 231 231 232 232 233 232 231 230 231 233 233 233 233 232 233 234 233 232 231 232 230 227 225 225 226 227 229 229 228 227 227 228 230 232 235
321 320 319 318 317 315 314 312 311 310 308 307 305 304 302 301 300 299 298 298 297 296 295 294 294 294 294 294 294 293 292 291 291 290 290 291 292 290 286 284 283 282 279 273 266 259 251 243 236 232 230 230 231 231 231 230 230 229 229 230 232 232 232 231 230 230 229 228 227 226 225 224 224 224 225 226 227 226 225 224 225 227 229 232 234
325 324 323 322 320 319 317 315 313 312 311 309 308 305 303 302 301 300 299 298 297 295 294 293 293 293 293 292 291 291 290 290 289 287 287 289 290 287 283 282 282 283 280 275 268 262 254 245 237 232 230 230 230 230 230 229 228 228 228 229 230 230 229 228 226 224 223 223 223 223 223 222 222 223 224 225 224 223 222 223 224 227 229 231 232
328 327 326 325 324 322 319 317 315 313 312 311 310 308 305 303 301 300 300 299 298 297 295 294 293 292 291 290 289 287 286 285 284 285 286 288 287 282 279 279 281 282 279 275 269 262 255 246 237 231 229 229 229 229 229 228 227 228 228 228 228 228 226 225 222 219 219 220 221 221 220 220 220 221 223 223 222 221 222 223 225 227 228 228 229
332 331 330 329 328 326 323 320 317 315 314 312 312 310 307 305 303 302 301 300 300 300 299 299 299 297 295 293 292 290 286 281 278 280 285 288 286 281 278 277 277 277 276 273 268 261 254 245 237 232 230 229 229 229 228 227 227 227 228 227 227 225 222 220 218 215 215 218 219 220 219 218 218 219 221 221 221 221 222 224 225 225 226 226 226
336 335 333 333 332 330 327 324 321 318 316 315 314 313 310 306 304 304 303 302 302 302 302 303 304 304 301 299 297 295 292 287 280 277 280 284 284 281 280 278 277 275 272 269 264 258 252 245 237 232 230 230 230 229 228 227 226 227 227 226 223 221 218 216 214 212 212 214 217 217 216 216 216 218 218 219 220 222 223 223 223 224 225 225 224
339 338 337 337 336 334 332 329 326 323 320 318 317 316 313 309 304 302 303 304 303 302 302 303 305 306 304 302 300 298 295 291 285 280 280 281 281 280 279 278 277 275 272 267 261 254 248 242 236 232 230 230 230 228 227 226 225 224 224 222 219 217 215 213 211 210 211 213 214 214 213 214 214 215 216 218 219 222 223 222 222 222 222 222 222
343 341 341 340 340 338 337 334 331 328 325 322 320 319 317 313 308 302 300 302 303 303 302 301 302 304 304 303 302 301 299 295 289 283 280 279 279 279 278 277 276 274 271 265 257 249 243 239 235 232 229 229 229 227 225 223 221 220 219 218 216 214 212 210 208 209 210 211 211 211 211 212 213 214 216 217 219 221 221 220 219 219 220 219 219
346 345 344 343 343 342 340 339 336 333 330 327 325 323 320 317 314 308 303 300 299 301 301 301 302 303 302 301 301 301 301 299 294 287 282 279 278 277 277 276 274 273 269 262 253 245 238 235 233 231 229 227 226 225 223 220 217 216 215 215 213 211 209 208 207 208 209 208 208 209 211 212 213 215 216 217 218 219 218 217 216 216 217 217 216
349 348 347 346 346 345 344 342 340 337 334 331 329 326 323 320 317 314 310 305 300 297 297 297 299 300 301 300 299 298 299 299 296 291 286 282 280 278 277 275 273 270 267 261 251 242 235 231 230 230 228 226 224 222 220 217 214 212 212 211 211 209 207 207 207 207 207 207 207 208 210 212 214 216 216 216 216 216 216 215 213 213 214 215 214
351 351 350 349 348 347 346 345 343 341 338 335 332 329 326 323 321 317 314 311 307 302 298 295 295 296 298 298 296 295 295 295 293 289 283 280 280 278 277 275 273 269 265 259 250 240 233 229 226 226 227 225 222 219 216 214 212 210 208 208 208 207 206 206 206 206 205 205 206 208 210 213 216 217 216 214 214 214 213 212 211 211 213 213 213
353 353 353 352 351 350 349 347 346 344 342 339 336 333 329 326 323 321 317 314 311 307 303 299 296 296 297 298 297 295 293 292 291 286 279 275 276 276 275 275 273 268 262 257 249 239 232 227 224 222 223 224 222 217 214 211 210 207 206 206 206 205 204 204 204 204 204 205 206 208 211 213 216 216 215 214 213 212 212 212 211 211 212 212 212
355 355 355 354 353 352 351 350 349 347 345 342 339 336 332 328 325 322 320 316 313 310 307 303 298 296 296 298 299 298 295 294 294 290 281 273 272 273 273 273 272 268 261 254 247 238 231 226 223 219 218 219 220 217 212 209 207 206 205 205 205 204 204 203 203 204 204 205 206 209 211 213 214 214 214 213 213 212 212 212 212 212 212 212 212
356 356 356 356 356 355 354 352 351 350 348 345 342 339 336 331 328 324 321 318 315 312 310 307 302 297 294 295 297 298 296 294 295 293 286 275 269 270 272 271 270 267 260 253 246 238 230 225 222 219 216 216 216 214 211 208 206 205 204 204 204 204 203 202 202 203 204 205 207 209 211 212 212 212 212 212 213 213 213 212 212 212 212 212 212
357 358 358 358 357 357 356 355 353 352 351 348 346 343 340 336 331 327 323 320 316 314 311 309 305 300 295 293 295 296 295 294 294 294 291 281 271 268 269 270 269 266 260 252 244 237 230 224 221 218 216 214 213 212 209 207 206 206 204 203 203 202 203 203 203 203 204 206 208 209 210 210 210 210 211 212 213 213 213 213 212 212 213 213 212
358 359 359 359 359 359 358 357 356 354 353 352 350 347 344 340 336 331 326 322 319 316 313 310 307 302 296 292 291 292 291 291 291 292 291 286 278 270 268 267 267 265 260 252 244 237 230 224 219 217 215 214 212 210 207 206 206 206 205 203 202 201 202 203 203 204 205 206 207 208 208 208 209 210 211 213 214 214 214 213 213 212 213 213 213
359 359 360 0 0 360 360 359 358 357 355 354 352 351 348 345 341 336 330 325 321 318 315 312 309 304 298 292 289 289 288 287 286 287 287 284 279 273 269 267 266 264 261 253 244 236 230 224 219 216 214 213 211 209 206 205 205 205 205 204 203 201 201 202 202 203 203 204 206 207 207 207 207 210 212 213 214 215 215 214 213 213 213 214 214
358 359 0 1 1 1 1 0 360 358 357 356 354 353 351 349 345 341 335 329 324 321 317 314 310 307 302 295 289 288 287 285 283 283 283 280 276 272 268 265 264 263 261 254 244 236 230 224 219 215 214 213 211 208 206 204 204 205 205 205 204 202 202 201 201 201 201 202 203 204 205 206 208 210 212 214 215 216 216 215 214 213 214 214 214
357 359 360 1 1 2 2 1 1 0 359 358 356 355 354 352 349 346 341 335 329 324 320 317 313 309 305 298 291 287 286 284 281 280 280 278 274 270 266 263 261 261 260 256 246 236 229 224 219 215 213 212 211 208 206 204 204 204 205 205 205 204 203 202 202 201 201 201 203 203 204 205 207 209 212 215 216 217 217 215 214 213 212 212 212
357 358 359 360 1 2 2 2 2 1 0 359 358 356 355 354 352 349 346 341 335 328 323 320 317 313 308 302 295 288 285 283 281 278 277 275 272 268 263 260 258 257 257 254 247 237 229 224 219 215 213 212 211 209 206 205 204 204 204 204 204 204 204 204 203 202 201 202 204 204 205 206 207 209 211 213 215 216 216 215 213 212 210 209 209
357 357 358 359 0 1 2 2 3 2 2 1 359 358 357 356 354 352 349 345 340 334 328 322 319 316 311 306 299 291 285 282 280 277 276 274 271 266 261 257 254 253 253 252 247 239 230 224 219 216 214 213 212 210 207 205 204 203 203 204 204 204 205 204 203 203 202 203 204 205 206 207 208 210 211 213 215 215 215 213 212 210 209 208 208
358 358 358 358 359 0 1 2 3 3 3 2 1 360 358 357 355 354 352 349 345 340 333 326 321 317 313 310 304 295 286 281 278 276 274 272 270 266 261 256 252 250 249 248 246 239 231 224 220 216 214 213 212 210 208 205 204 203 203 203 203 204 205 205 204 204 204 205 206 206 207 208 209 210 212 213 215 215 215 213 211 210 209 208 207
358 358 358 358 358 359 0 1 2 2 3 3 2 1 359 358 356 355 354 352 349 344 339 332 326 320 315 311 308 301 291 282 276 274 272 270 267 265 261 255 251 247 246 245 244 239 232 225 220 216 214 213 212 211 209 206 203 202 202 202 202 203 204 205 206 205 205 206 207 208 208 209 209 210 211 213 214 215 214 213 211 211 209 208 207
359 358 358 358 358 358 359 360 1 1 2 3 3 2 1 359 358 356 355 354 352 348 343 338 331 324 317 312 309 305 298 287 277 271 269 268 266 263 259 255 250 246 243 242 241 238 232 226 220 216 214 212 212 211 210 207 204 202 201 201 201 202 203 204 206 207 206 207 208 209 210 210 210 210 211 212 213 214 213 213 212 211 209 208 207
360 359 358 358 358 358 358 359 360 0 1 2 2 2 2 1 359 357 356 355 353 351 347 342 337 330 322 315 309 307 303 294 282 271 266 264 263 261 258 254 249 244 241 240 239 237 232 226 221 216 214 212 211 211 210 208 205 203 201 200 200 201 202 203 205 206 206 207 208 209 209 210 210 210 211 211 212 212 212 212 212 211 209 208 207
0 359 359 358 358 358 358 358 359 359 0 1 1 2 2 2 0 359 357 355 354 352 350 346 341 335 328 319 311 306 303 299 289 276 265 260 259 258 255 252 248 244 240 238 237 235 232 226 221 216 213 212 211 211 210 209 207 204 202 200 199 200 201 202 203 205 206 206 207 208 209 209 209 209 210 211 211 211 212 212 211 209 208 207 207